This is the latest recevied weather packets stored in our database for station/object F4JSG-10. If no packets are shown the sender has not sent any weather packets the latest 1 day(s).
| Time | Temp. | Humidity | Pressure | Rain* | Wind** | Luminosity | Snow |
|---|---|---|---|---|---|---|---|
| 1778052211 | 17.78° C | 74% | 981.2 hPa | - | - | - | - |
| 1778052205 | 17.78° C | 74% | 981.2 hPa | - | - | - | - |
| 1778051304 | 15.56° C | 71% | 981.1 hPa | - | - | - | - |
| 1778050407 | 15° C | 70% | 981.1 hPa | - | - | - | - |
| 1778050404 | 15° C | 70% | 981.1 hPa | - | - | - | - |
| 1778049511 | 13.89° C | 81% | 981.4 hPa | - | - | - | - |
| 1778049504 | 13.89° C | 81% | 981.4 hPa | - | - | - | - |
| 1778049471 | 13.89° C | 77% | 981.4 hPa | - | - | - | - |
| 1778049351 | 13.89° C | 83% | 981.4 hPa | - | - | - | - |
| 1778049269 | 13.89° C | 80% | 981.4 hPa | - | - | - | - |
| 1778049200 | 13.89° C | 83% | 981.4 hPa | - | - | - | - |
| 1778048229 | 11.67° C | 81% | 981.6 hPa | - | - | - | - |
| 1778048186 | 11.67° C | 82% | 981.5 hPa | - | - | - | - |
| 1778047908 | 11.67° C | 85% | 981.6 hPa | - | - | - | - |
| 1778040896 | 8.33° C | 89% | 981.7 hPa | - | - | - | - |
| 1778040888 | 8.33° C | 89% | 981.7 hPa | - | - | - | - |
| 1778037887 | 7.78° C | 88% | 981.9 hPa | - | - | - | - |
| 1778037880 | 7.78° C | 88% | 981.9 hPa | - | - | - | - |
| 1778036015 | 8.33° C | 86% | 981.8 hPa | - | - | - | - |
| 1778034215 | 8.89° C | 86% | 982 hPa | - | - | - | - |
| 1778032061 | 9.44° C | 88% | 982.6 hPa | - | - | - | - |
| 1778032054 | 9.44° C | 88% | 982.6 hPa | - | - | - | - |
| 1778029004 | 9.44° C | 87% | 982.6 hPa | - | - | - | - |
| 1778018782 | 11.11° C | 81% | 983.5 hPa | - | - | - | - |
| 1778018779 | 11.11° C | 81% | 983.5 hPa | - | - | - | - |
* Rain since midnight (hover to see other rain measurements)
** Current wind speed in m/s (hover to see current wind gust speed)